Regional Weather Roundup
Issued by NWS

Home | Current Version | Previous Version | Graphics & Text | Print | Product List | Glossary On
Versions: 1 2 3 4 5 6 7 8 9 10 11 12 13 14 15 16 17 18 19 20 21 22 23 24 25 26 27 28 29 30 31 32 33 34 35 36 37 38 39 40 41 42 43 44 45 46 47 48 49 50
000
ASUS45 KABQ 251101
RWRNM
WEATHER ROUNDUP FOR NEW MEXICO
NATIONAL WEATHER SERVICE ALBUQUERQUE NM
400 AM MST SUN JAN 25 2015

NOTE: "FAIR" MEANS FEW OR NO CLOUDS BELOW 12,000 FEET AGL WITH NO
       SIGNIFICANT WEATHER OR OBSTRUCTIONS TO VISION.

      THIS PRODUCT IS RELEASED AS TWO VERSIONS.  ONE VERSION NEAR
      THE TOP OF THE HOUR CONTAINING PRELIMINARY DATA FROM ALBUQUERQUE
      AND OTHER STATIONS.  A FINAL VERSION WITH ADDITIONAL DATA IS
      ISSUED ABOUT 10 MINUTES AFTER THE HOUR.

NMZ501-503-504-510>518-251200-
NORTHWEST PLATEAU/NORTHCENTRAL MOUNTAINS

CITY           SKY/WX    TMP DP  RH WIND       PRES   REMARKS
FARMINGTON     CLEAR     22  16  78 SE3       30.29S
SANTA FE       PTCLDY    25  16  68 N7        30.23S WCI  17
TAOS           PTCLDY    18  10  73 E5        30.27F WCI  11

$$
NMZ402-403-502-505>509-251200-
WESTCENTRAL MOUNTAINS/SOUTHWEST MOUNTAINS

CITY           SKY/WX    TMP DP  RH WIND       PRES   REMARKS
GALLUP         CLEAR     17  14  88 CALM      30.28F
GRANTS         CLEAR     20  17  88 NW7       30.30S WCI  11
SILVER CITY    CLEAR     27  18  69 N9        30.22F WCI  17

$$
NMZ407-409-411-412-251200-
SOUTHERN DESERTS

CITY           SKY/WX    TMP DP  RH WIND       PRES   REMARKS
DEMING         PTCLDY    26  21  81 CALM      30.22F
HOLLOMAN AFB   PTCLDY    26  23  89 NW3       30.18F
ALAMOGORDO     PTCLDY    30  19  64 S7        30.20F WCI  23
T OR C         PTCLDY    30  21  69 NW9       30.22F WCI  22

$$
NMZ519>523-251200-
CENTRAL VALLEYS/CENTRAL HIGHLANDS

CITY           SKY/WX    TMP DP  RH WIND       PRES   REMARKS
ALBUQUERQUE    PTCLDY    30  19  63 SE5       30.25F WCI  25
DOUBLE EAGLE   CLEAR     24  16  71 CALM      30.25S
MORIARTY ARPT  FAIR      22  19  85 N5        30.24F WCI  16
CLINES CORNERS PTCLDY    28  16  60 NW12      30.20R WCI  18
BELEN          FAIR      24  20  84 N6        30.25F WCI  17
SOCORRO        NOT AVBL

$$
NMZ524>526-539-540-251200-
SOUTHCENTRAL MOUNTAINS

CITY           SKY/WX    TMP DP  RH WIND       PRES   REMARKS
RUIDOSO        NOT AVBL

$$
NMZ527>531-251200-
NORTHEAST HIGHLANDS/NORTHEAST PLAINS

CITY           SKY/WX    TMP DP  RH WIND       PRES   REMARKS
LAS VEGAS      PTCLDY    26  14  60 NW3       30.20S
RATON          CLEAR     28  20  71 N8        30.16S WCI  20
CLAYTON        PTCLDY    33  25  72 W12       30.17R WCI  24

$$
NMZ532>537-251200-
EASTCENTRAL PLAINS

CITY           SKY/WX    TMP DP  RH WIND       PRES   REMARKS
TUCUMCARI      MIX PCPN  24  21  88 CALM      30.17R
CANNON AFB     PTCLDY    36  27  70 NE13      30.16R WCI  28
CLOVIS AIRPORT PTCLDY    36  27  69 N12       30.16R WCI  27

$$
NMZ028-029-538-251200-
SOUTHEAST PLAINS

CITY           SKY/WX    TMP DP  RH WIND       PRES   REMARKS
ROSWELL        CLEAR     30  26  85 W3        30.15S
ARTESIA        PTCLDY    32  30  93 NW9       30.16S WCI  24
CARLSBAD       CLEAR     37  26  64 NW9       30.14R WCI  30
HOBBS          PTCLDY    34  28  80 NW13      30.13S WCI  25


$$



USA.gov is the U.S. government's official web portal to all federal, state and local government web resources and services.